Location: Potomac
(46.8816°N, 113.5795°W)
Time: 02:18:01
(UTC+00:00)

AO-91 - Visible Passes

Search period start: 30 June 2022 00:00
Search period end: 10 July 2022 00:00
Orbit: 450 x 799 km, 97.7° (Epoch: 29 June)

Date Brightness Start Highest point End Pass type
(mag) Time Alt. Az. Time Alt. Az. Time Alt. Az.
30 Jun ? 05:29:40 10° NE 05:31:48 15° E 05:32:06 15° E visible
30 Jun ? 07:05:07 10° N 07:08:14 32° WNW 07:09:22 25° WSW visible
01 Jul ? 05:47:44 10° NE 05:50:37 25° E 05:50:57 25° ESE visible
01 Jul ? 07:24:12 10° NNW 07:26:48 20° WNW 07:28:13 16° W visible
02 Jul ? 06:06:08 10° NNE 06:09:24 42° E 06:09:48 40° ESE visible
02 Jul ? 07:43:40 10° NNW 07:45:19 13° WNW 07:46:56 10° W visible
03 Jul ? 06:24:42 10° NNE 06:28:07 77° ESE 06:28:39 59° S visible
04 Jul ? 06:43:25 10° N 06:46:46 59° WNW 06:47:30 46° SW visible
05 Jul ? 05:26:59 10° ENE 05:28:55 14° E 05:29:05 14° E visible
05 Jul ? 07:02:16 10° N 07:05:22 34° WNW 07:06:20 28° WSW visible
06 Jul ? 05:44:56 10° NE 05:47:43 23° E 05:47:55 23° ESE visible
06 Jul ? 07:21:19 10° NNW 07:23:56 21° WNW 07:25:11 17° W visible
07 Jul ? 06:03:16 10° NNE 06:06:28 39° E 06:06:45 38° ESE visible
07 Jul ? 07:40:41 10° NNW 07:42:27 14° WNW 07:44:01 11° W visible
08 Jul ? 06:21:47 10° NNE 06:25:09 71° ESE 06:25:36 61° SSE visible
09 Jul ? 06:40:27 10° N 06:43:48 64° WNW 06:44:26 51° SW visible
